Time,TemperatureF,DewpointF,PressureIn,WindDirection,WindDirectionDegrees,WindSpeedMPH,WindSpeedGustMPH,Humidity,HourlyPrecipIn,Conditions,Clouds,dailyrainin,SolarRadiationWatts/m^2,SoftwareType,DateUTC
2013-03-07 00:02:00,25.0,21.0,-100.00,SSW,208,7.0,20.0,83,0.00,,,0.16,1.000000,,2013-03-07 08:02:00,
2013-03-07 00:11:00,25.0,21.0,-100.00,SSW,208,7.0,20.0,83,0.00,,,0.16,1.000000,,2013-03-07 08:11:00,
2013-03-07 00:22:00,25.0,21.0,-100.00,SSW,208,7.0,20.0,83,0.00,,,0.16,1.000000,,2013-03-07 08:22:00,
2013-03-07 00:54:00,25.0,21.0,-100.00,SSW,201,7.0,12.0,83,0.00,,,0.16,1.000000,,2013-03-07 08:54:00,
2013-03-07 01:02:00,25.0,21.0,-100.00,SSW,201,7.0,12.0,83,0.00,,,0.16,1.000000,,2013-03-07 09:02:00,
2013-03-07 01:11:00,25.0,21.0,-100.00,SSW,201,7.0,12.0,83,0.00,,,0.16,1.000000,,2013-03-07 09:11:00,
2013-03-07 01:21:00,25.0,21.0,-100.00,SSW,201,7.0,12.0,83,0.00,,,0.16,1.000000,,2013-03-07 09:21:00,
2013-03-07 01:53:00,24.0,19.0,-100.00,SSW,213,4.0,11.0,82,0.00,,,-99.99,1.000000,,2013-03-07 09:53:00,
2013-03-07 02:02:00,24.0,19.0,-100.00,SSW,213,4.0,11.0,82,0.00,,,-99.99,1.000000,,2013-03-07 10:02:00,
2013-03-07 02:12:00,24.0,19.0,-100.00,SSW,213,4.0,11.0,82,0.00,,,-99.99,1.000000,,2013-03-07 10:12:00,
2013-03-07 02:22:00,24.0,19.0,-100.00,SSW,213,4.0,11.0,82,0.00,,,-99.99,1.000000,,2013-03-07 10:22:00,
2013-03-07 02:53:00,24.0,20.0,-100.00,SSW,198,5.0,7.0,85,0.00,,,0.16,1.000000,,2013-03-07 10:53:00,
2013-03-07 03:02:00,24.0,20.0,-100.00,SSW,198,5.0,7.0,85,0.00,,,0.16,1.000000,,2013-03-07 11:02:00,
2013-03-07 03:11:00,24.0,20.0,-100.00,SSW,198,5.0,7.0,85,0.00,,,0.16,1.000000,,2013-03-07 11:11:00,
2013-03-07 03:22:00,24.0,20.0,-100.00,SSW,198,5.0,7.0,85,0.00,,,0.16,1.000000,,2013-03-07 11:22:00,
2013-03-07 03:54:00,25.0,21.0,-100.00,SSW,200,5.0,7.0,83,0.00,,,0.16,1.000000,,2013-03-07 11:54:00,
2013-03-07 04:02:00,25.0,21.0,-100.00,SSW,200,5.0,7.0,83,0.00,,,0.16,1.000000,,2013-03-07 12:02:00,
2013-03-07 04:11:00,25.0,21.0,-100.00,SSW,200,5.0,7.0,83,0.00,,,0.16,1.000000,,2013-03-07 12:11:00,
2013-03-07 04:21:00,25.0,21.0,-100.00,SSW,200,5.0,7.0,83,0.00,,,0.16,1.000000,,2013-03-07 12:21:00,
2013-03-07 04:43:00,23.0,20.0,-100.00,SSW,200,5.0,8.0,89,0.00,,,0.16,1.000000,,2013-03-07 12:43:00,
2013-03-07 04:52:00,23.0,20.0,-100.00,SSW,200,5.0,8.0,89,0.00,,,0.16,1.000000,,2013-03-07 12:52:00,
2013-03-07 05:02:00,23.0,20.0,-100.00,SSW,200,5.0,8.0,89,0.00,,,0.16,1.000000,,2013-03-07 13:02:00,
2013-03-07 05:12:00,23.0,20.0,-100.00,SSW,200,5.0,8.0,89,0.00,,,0.16,1.000000,,2013-03-07 13:12:00,
2013-03-07 05:21:00,23.0,20.0,-100.00,SSW,200,5.0,8.0,89,0.00,,,0.16,1.000000,,2013-03-07 13:21:00,
2013-03-07 05:42:00,23.0,19.0,-100.00,SSW,203,7.0,11.0,86,0.00,,,0.16,1.000000,,2013-03-07 13:42:00,
2013-03-07 05:53:00,23.0,19.0,-100.00,SSW,203,7.0,11.0,86,0.00,,,0.16,1.000000,,2013-03-07 13:53:00,
2013-03-07 06:01:00,23.0,19.0,-100.00,SSW,203,7.0,11.0,86,0.00,,,0.16,1.000000,,2013-03-07 14:01:00,
2013-03-07 06:11:00,23.0,19.0,-100.00,SSW,203,7.0,11.0,86,0.00,,,0.16,1.000000,,2013-03-07 14:11:00,
2013-03-07 06:21:00,23.0,19.0,-100.00,SSW,203,7.0,11.0,86,0.00,,,0.16,1.000000,,2013-03-07 14:21:00,
2013-03-07 06:43:00,21.0,19.0,-100.00,SSW,208,6.0,10.0,92,0.00,,,0.16,1.000000,,2013-03-07 14:43:00,
2013-03-07 06:53:00,21.0,19.0,-100.00,SSW,208,6.0,10.0,92,0.00,,,0.16,1.000000,,2013-03-07 14:53:00,
2013-03-07 07:02:00,21.0,19.0,-100.00,SSW,208,6.0,10.0,92,0.00,,,0.16,1.000000,,2013-03-07 15:02:00,
2013-03-07 07:11:00,21.0,19.0,-100.00,SSW,208,6.0,10.0,92,0.00,,,0.16,1.000000,,2013-03-07 15:11:00,
2013-03-07 07:21:00,21.0,19.0,-100.00,SSW,208,6.0,10.0,92,0.00,,,0.16,1.000000,,2013-03-07 15:21:00,
2013-03-07 07:53:00,23.0,20.0,-100.00,SW,215,7.0,10.0,89,0.00,,,0.16,27.000000,,2013-03-07 15:53:00,
2013-03-07 08:01:00,23.0,20.0,-100.00,SW,215,7.0,10.0,89,0.00,,,0.16,27.000000,,2013-03-07 16:01:00,
2013-03-07 08:12:00,23.0,20.0,-100.00,SW,215,7.0,10.0,89,0.00,,,0.16,27.000000,,2013-03-07 16:12:00,
2013-03-07 08:22:00,23.0,20.0,-100.00,SW,215,7.0,10.0,89,0.00,,,0.16,27.000000,,2013-03-07 16:22:00,
2013-03-07 08:53:00,26.0,21.0,-100.00,SSW,207,6.0,9.0,82,0.00,,,0.16,84.000000,,2013-03-07 16:53:00,
2013-03-07 09:02:00,26.0,21.0,-100.00,SSW,207,6.0,9.0,82,0.00,,,0.16,84.000000,,2013-03-07 17:02:00,
2013-03-07 09:11:00,26.0,21.0,-100.00,SSW,207,6.0,9.0,82,0.00,,,0.16,84.000000,,2013-03-07 17:11:00,
2013-03-07 09:22:00,26.0,21.0,-100.00,SSW,207,6.0,9.0,82,0.00,,,0.16,84.000000,,2013-03-07 17:22:00,
2013-03-07 09:54:00,34.0,25.0,-100.00,SW,236,3.0,8.0,68,0.00,,,0.16,307.000000,,2013-03-07 17:54:00,
2013-03-07 10:02:00,34.0,25.0,-100.00,SW,236,3.0,8.0,68,0.00,,,0.16,307.000000,,2013-03-07 18:02:00,
2013-03-07 10:11:00,34.0,25.0,-100.00,SW,236,3.0,8.0,68,0.00,,,0.16,307.000000,,2013-03-07 18:11:00,
2013-03-07 10:21:00,34.0,25.0,-100.00,SW,236,3.0,8.0,68,0.00,,,0.16,307.000000,,2013-03-07 18:21:00,
2013-03-07 10:52:00,40.0,26.0,-100.00,ENE,71,3.0,5.0,57,0.00,,,0.16,459.000000,,2013-03-07 18:52:00,
2013-03-07 11:02:00,40.0,26.0,-100.00,ENE,71,3.0,5.0,57,0.00,,,0.16,459.000000,,2013-03-07 19:02:00,
2013-03-07 11:11:00,40.0,26.0,-100.00,ENE,71,3.0,5.0,57,0.00,,,0.16,459.000000,,2013-03-07 19:11:00,
2013-03-07 11:21:00,40.0,26.0,-100.00,ENE,71,3.0,5.0,57,0.00,,,0.16,459.000000,,2013-03-07 19:21:00,
2013-03-07 11:53:00,38.0,24.0,-100.00,ENE,77,4.0,8.0,57,0.00,,,0.14,395.000000,,2013-03-07 19:53:00,
2013-03-07 12:01:00,38.0,24.0,-100.00,ENE,77,4.0,8.0,57,0.00,,,0.14,395.000000,,2013-03-07 20:01:00,
2013-03-07 12:12:00,38.0,24.0,-100.00,ENE,77,4.0,8.0,57,0.00,,,0.14,395.000000,,2013-03-07 20:12:00,
2013-03-07 12:21:00,38.0,24.0,-100.00,ENE,77,4.0,8.0,57,0.00,,,0.14,395.000000,,2013-03-07 20:21:00,
2013-03-07 12:54:00,39.0,27.0,-100.00,NNE,33,3.0,7.0,62,0.00,,,0.07,378.000000,,2013-03-07 20:54:00,
2013-03-07 13:02:00,39.0,27.0,-100.00,NNE,33,3.0,7.0,62,0.00,,,0.07,378.000000,,2013-03-07 21:02:00,
2013-03-07 13:11:00,39.0,27.0,-100.00,NNE,33,3.0,7.0,62,0.00,,,0.07,378.000000,,2013-03-07 21:11:00,
2013-03-07 13:22:00,39.0,27.0,-100.00,NNE,33,3.0,7.0,62,0.00,,,0.07,378.000000,,2013-03-07 21:22:00,
2013-03-07 13:52:00,41.0,30.0,-100.00,NE,46,3.0,7.0,65,0.01,,,0.03,384.000000,,2013-03-07 21:52:00,
2013-03-07 14:01:00,41.0,30.0,-100.00,NE,46,3.0,7.0,65,0.01,,,0.03,384.000000,,2013-03-07 22:01:00,
2013-03-07 14:11:00,41.0,30.0,-100.00,NE,46,3.0,7.0,65,0.01,,,0.03,384.000000,,2013-03-07 22:11:00,
2013-03-07 14:22:00,41.0,30.0,-100.00,NE,46,3.0,7.0,65,0.01,,,0.03,384.000000,,2013-03-07 22:22:00,
2013-03-07 14:54:00,45.0,28.0,-100.00,ENE,61,3.0,9.0,51,0.00,,,0.02,489.000000,,2013-03-07 22:54:00,
2013-03-07 15:02:00,45.0,28.0,-100.00,ENE,61,3.0,9.0,51,0.00,,,0.02,489.000000,,2013-03-07 23:02:00,
2013-03-07 15:12:00,45.0,28.0,-100.00,ENE,61,3.0,9.0,51,0.00,,,0.02,489.000000,,2013-03-07 23:12:00,
2013-03-07 15:21:00,45.0,28.0,-100.00,ENE,61,3.0,9.0,51,0.00,,,0.02,489.000000,,2013-03-07 23:21:00,
2013-03-07 15:53:00,43.0,24.0,-100.00,ENE,77,2.0,7.0,47,-99.99,,,0.01,477.000000,,2013-03-07 23:53:00,
2013-03-07 16:03:00,43.0,24.0,-100.00,ENE,77,2.0,7.0,47,-99.99,,,0.01,477.000000,,2013-03-08 00:03:00,
2013-03-07 16:12:00,43.0,24.0,-100.00,ENE,77,2.0,7.0,47,-99.99,,,0.01,477.000000,,2013-03-08 00:12:00,
2013-03-07 16:22:00,43.0,24.0,-100.00,ENE,77,2.0,7.0,47,-99.99,,,0.01,477.000000,,2013-03-08 00:22:00,
2013-03-07 16:53:00,35.0,24.0,-100.00,ENE,76,4.0,15.0,65,0.00,,,0.01,252.000000,,2013-03-08 00:53:00,
2013-03-07 17:01:00,35.0,24.0,-100.00,ENE,76,4.0,15.0,65,0.00,,,0.01,252.000000,,2013-03-08 01:01:00,
2013-03-07 17:11:00,35.0,24.0,-100.00,ENE,76,4.0,15.0,65,0.00,,,0.01,252.000000,,2013-03-08 01:11:00,
2013-03-07 17:21:00,35.0,24.0,-100.00,ENE,76,4.0,15.0,65,0.00,,,0.01,252.000000,,2013-03-08 01:21:00,
2013-03-07 17:42:00,34.0,20.0,-100.00,SSE,147,4.0,8.0,56,0.00,,,0.01,69.000000,,2013-03-08 01:42:00,
2013-03-07 17:52:00,34.0,20.0,-100.00,SSE,147,4.0,8.0,56,0.00,,,0.01,69.000000,,2013-03-08 01:52:00,
2013-03-07 18:01:00,34.0,20.0,-100.00,SSE,147,4.0,8.0,56,0.00,,,0.01,69.000000,,2013-03-08 02:01:00,
2013-03-07 18:11:00,34.0,20.0,-100.00,SSE,147,4.0,8.0,56,0.00,,,0.01,69.000000,,2013-03-08 02:11:00,
2013-03-07 18:21:00,34.0,20.0,-100.00,SSE,147,4.0,8.0,56,0.00,,,0.01,69.000000,,2013-03-08 02:21:00,
2013-03-07 18:53:00,32.0,22.0,-100.00,SSW,206,3.0,10.0,67,0.00,,,0.01,10.000000,,2013-03-08 02:53:00,
2013-03-07 19:02:00,32.0,22.0,-100.00,SSW,206,3.0,10.0,67,0.00,,,0.01,10.000000,,2013-03-08 03:02:00,
2013-03-07 19:11:00,32.0,22.0,-100.00,SSW,206,3.0,10.0,67,0.00,,,0.01,10.000000,,2013-03-08 03:11:00,
2013-03-07 19:22:00,32.0,22.0,-100.00,SSW,206,3.0,10.0,67,0.00,,,0.01,10.000000,,2013-03-08 03:22:00,
2013-03-07 19:52:00,31.0,23.0,-100.00,North,358,3.0,5.0,72,0.00,,,0.01,1.000000,,2013-03-08 03:52:00,
2013-03-07 20:01:00,31.0,23.0,-100.00,North,358,3.0,5.0,72,0.00,,,0.01,1.000000,,2013-03-08 04:01:00,
2013-03-07 20:11:00,31.0,23.0,-100.00,North,358,3.0,5.0,72,0.00,,,0.01,1.000000,,2013-03-08 04:11:00,
2013-03-07 20:21:00,31.0,23.0,-100.00,North,358,3.0,5.0,72,0.00,,,0.01,1.000000,,2013-03-08 04:21:00,
2013-03-07 20:52:00,31.0,23.0,-100.00,North,359,2.0,5.0,73,0.00,,,0.01,1.000000,,2013-03-08 04:52:00,
2013-03-07 21:01:00,31.0,23.0,-100.00,North,359,2.0,5.0,73,0.00,,,0.01,1.000000,,2013-03-08 05:01:00,
2013-03-07 21:12:00,31.0,23.0,-100.00,North,359,2.0,5.0,73,0.00,,,0.01,1.000000,,2013-03-08 05:12:00,
2013-03-07 21:22:00,31.0,23.0,-100.00,North,359,2.0,5.0,73,0.00,,,0.01,1.000000,,2013-03-08 05:22:00,
2013-03-07 21:52:00,30.0,25.0,-100.00,NW,317,1.0,5.0,82,0.00,,,0.01,1.000000,,2013-03-08 05:52:00,
2013-03-07 22:01:00,30.0,25.0,-100.00,NW,317,1.0,5.0,82,0.00,,,0.01,1.000000,,2013-03-08 06:01:00,
2013-03-07 22:11:00,30.0,25.0,-100.00,NW,317,1.0,5.0,82,0.00,,,0.01,1.000000,,2013-03-08 06:11:00,
2013-03-07 22:21:00,30.0,25.0,-100.00,NW,317,1.0,5.0,82,0.00,,,0.01,1.000000,,2013-03-08 06:21:00,
2013-03-07 22:42:00,28.0,26.0,-100.00,NNE,32,2.0,6.0,93,0.00,,,0.01,1.000000,,2013-03-08 06:42:00,
2013-03-07 22:52:00,28.0,26.0,-100.00,NNE,32,2.0,6.0,93,0.00,,,0.01,1.000000,,2013-03-08 06:52:00,
2013-03-07 23:01:00,28.0,26.0,-100.00,NNE,32,2.0,6.0,93,0.00,,,0.01,1.000000,,2013-03-08 07:01:00,
2013-03-07 23:11:00,28.0,26.0,-100.00,NNE,32,2.0,6.0,93,0.00,,,0.01,1.000000,,2013-03-08 07:11:00,
2013-03-07 23:21:00,28.0,26.0,-100.00,NNE,32,2.0,6.0,93,0.00,,,0.01,1.000000,,2013-03-08 07:21:00,
2013-03-07 23:52:00,27.0,27.0,-100.00,East,84,0.0,4.0,98,0.00,,,0.01,1.000000,,2013-03-08 07:52:00,